COSMOS 1733

Satellite information

Favourite Embed

Satellite Type and Status

PAYLOADIN ORBIT

Key statistics

Satellite COSMOS 1733 at a glance.

Uptime

14381

Days in orbit

Revolutions

≈ 15.6

Per day

Orbit

LEO

Low Earth Orbit

Inclination

82.5

Latest

Satellite identification and parameters

Extended collection of information and parameters for COSMOS 1733.

Object identification

Identified? True

Debris? False

Object name: COSMOS 1733

International designator: 1986-018A

Object number (NORAD): 16611

Object ID (CCSDS): 16611

Country: COMMONWEALTH OF INDEPENDENT STATES (CIS)

Current information (Y/N): Y

RCS size: LARGE

Orbital parameters

Period: 92.042 minutes

Inclination: 82.4701 deg

SMA: 6752.797 km

Apoapsis: 377.741 km

Periapsis: 371.583 km

RAAN: 336.6283 deg

Eccentricy: 0.000456

Argument of periapsis: 123.1212 deg

Mean anomaly: 237.0485 deg

Mean motion: 15.64505988 rev/day

Mean motion (dot): 0.00045802 rev/day2

B* drag term: 0.00047415 1/REarth

Two-line elements (TLE)

Creation date: July 4, 2025, 6:39 p.m.

Reference frame: TEME

Reference center: EARTH

Epoch: July 4, 2025, 11:45 a.m. UTC

TLE line 0: 0 COSMOS 1733

TLE line 1: 1 16611U 86018A 25185.48980230 .00045802 00000-0 47415-3 0 9996

TLE line 2: 2 16611 82.4701 336.6283 0004560 123.1212 237.0485 15.64505988156177

Live tracking on map

Real-time ground track for satellite COSMOS 1733.

In-orbit conjunctions

There are no conjunctions computed for COSMOS 1733, at the moment. Check back to stay up to date, as we update our databases every day.

Go to all conjunctions

Associated space launch

Tselina-D satellites provided detailed observation of radio sources detected by the smaller Tselina-O satellites as part of the Tselina ELINT system.

COSMOS 1733 was lifted into orbit during the mission ‘Tsiklon-3 | Tselina-D 54’, on board a Tsiklon-3 space rocket.

The launch took place on Feb. 19, 1986, 11:04 p.m. from 32/1.

For more information about the launch, click the button.

Launch to space Tsiklon-3 | Tselina-D 54
Tsiklon-3 | Tselina-D 54

Agency: N/A

Status: Launch Successful

Launch date: Feb. 19, 1986, 11:04 p.m. UTC

Rocket: Tsiklon-3

Launch pad: 32/1

Location: Plesetsk Cosmodrome, Russian Federation

...

Latest news about this satellite

There are no fresh news available about this satellite. Check back as we update our databases every day.


Newsletter sign-up

Weekly statistics, charts and insights to help you stay on top of the space industry.